Regional Weather Roundup
Issued by NWS Little Rock, AR

Home | Current Version | Previous Version | Text Only | Print | Product List | Glossary Off
Versions: 1 2 3 4 5 6 7 8 9 10 11 12 13 14 15 16 17 18 19 20 21 22 23 24 25 26 27

000
ASUS44 KLZK 230305
RWRLZK

WEATHER ROUNDUP FOR ARKANSAS
NATIONAL WEATHER SERVICE LITTLE ROCK AR
1000 PM CDT TUE APR 22 2014

NOTE: "FAIR" INDICATES FEW OR NO CLOUDS BELOW 12,000 FEET WITH NO
SIGNIFICANT WEATHER AND/OR OBSTRUCTIONS TO VISIBILITY.

ARZ001-003-010-029-230400-
NORTHWEST ARKANSAS

CITY           SKY/WX    TMP DP  RH WIND       PRES   REMARKS
FAYETTEVILLE   CLEAR     52  44  74 CALM      30.00R
FORT SMITH     CLEAR     66  37  34 CALM      29.96R
HARRISON       CLEAR     57  35  43 CALM      30.00R
BENTONVILLE    CLEAR     59  39  47 NE3       30.01R
ROGERS         CLEAR     59  38  45 NE3       30.01R
SILOAM SPGS    CLEAR     57  37  47 NE5       30.01R
HIGHFILL       CLEAR     54  40  59 N6        30.00R
$$

ARZ004-005-016-230400-
NORTH CENTRAL ARKANSAS

CITY           SKY/WX    TMP DP  RH WIND       PRES   REMARKS
BATESVILLE     CLEAR     61  37  41 CALM      29.95S
FLIPPIN        CLEAR     57  36  44 N3        29.98S
MTN HOME       CLEAR     63  32  31 CALM      29.98R
$$

ARZ040-041-230400-
WEST CENTRAL ARKANSAS

CITY           SKY/WX    TMP DP  RH WIND       PRES   REMARKS
MENA           CLEAR     55  52  88 CALM      29.98S
MOUNT IDA      CLEAR     58  53  84 CALM      29.94R
$$

ARZ009-017-025-026-028-230400-
NORTHEAST ARKANSAS

CITY           SKY/WX    TMP DP  RH WIND       PRES   REMARKS
CORNING        FAIR      59  45  58 E9        29.98R
JONESBORO      CLEAR     60  46  59 NE7       29.96R
NEWPORT        CLEAR     66  48  52 W3        29.97R
WALNUT RIDGE   CLEAR     61  45  55 E9        29.97R
BLYTHEVILLE    CLEAR     56  45  66 NE5       29.96R
$$

ARZ022-023-033-042-044-230400-
CENTRAL ARKANSAS

CITY           SKY/WX    TMP DP  RH WIND       PRES   REMARKS
LITTLE ROCK    CLEAR     64  46  52 CALM      29.95R
N LITTLE ROCK  CLEAR     67  39  36 NE6       29.95R
JACKSONVILLE   CLEAR     56  48  74 CALM      29.96R
SEARCY         CLEAR     64  39  39 N6        29.96S
HOT SPRINGS    CLEAR     61  51  70 CALM      29.95R
RUSSELLVILLE   CLEAR     58  45  62 CALM      29.95R
CLINTON        FAIR      55  46  71 CALM      29.98R
$$

ARZ036-230400-
EAST ARKANSAS

CITY           SKY/WX    TMP DP  RH WIND       PRES   REMARKS
WEST MEMPHIS   CLEAR     61  46  57 NE3       29.95R HAZE
$$

ARZ050-053-066-070-073-230400-
SOUTHWEST ARKANSAS

CITY           SKY/WX    TMP DP  RH WIND       PRES   REMARKS
ARKADELPHIA    FAIR      63  61  93 CALM      29.95R
CAMDEN         CLEAR     61  57  88 MISG      29.94R
TEXARKANA      CLEAR     65  54  67 CALM      29.94R
EL DORADO      CLEAR     61  59  93 CALM      29.94R
DE QUEEN       CLEAR     60  54  80 CALM      29.93R
$$

ARZ056-057-069-230400-
SOUTHEAST ARKANSAS

CITY           SKY/WX    TMP DP  RH WIND       PRES   REMARKS
PINE BLUFF     CLEAR     62  52  69 CALM      29.95R
STUTTGART      CLEAR     66  46  48 E5        29.96R
MONTICELLO     CLEAR     59  55  87 CALM      29.94S

$$





USA.gov is the U.S. government's official web portal to all federal, state and local government web resources and services.